JST786 YSSY-YBSU

Flight info

Callsign JST786
Flight time 1h 26m
Altitude 33000
Route YSSY/34L DCT OLSEM Y193 BANDA H252 GOMOL Q69 ITIDE ITID2Z YBSU/13
Aircraft A320/M-SDE3FGHIRWY/LB1

Departure

Time 2026-05-06 12:34
Airport Sydney Kingsford Smith International Airport (YSSY)

Arrival

Time 2026-05-06 14:01
Airport Sunshine Coast Airport (YBSU)
Time Latitude Longitude Altitude Speed Heading
2026-05-06 11:57 -33.93577 151.17903 30 ft 0 kts 101°
2026-05-06 12:21 -33.93573 151.17883 29 ft 4 kts 107°
2026-05-06 12:21 -33.93563 151.17854 30 ft 4 kts 126°
2026-05-06 12:22 -33.93545 151.17835 30 ft 4 kts 175°
2026-05-06 12:22 -33.93534 151.17835 30 ft 1 kts 190°
2026-05-06 12:22 -33.93533 151.17835 30 ft 0 kts 190°
2026-05-06 12:25 -33.93534 151.17835 30 ft 1 kts 190°
2026-05-06 12:26 -33.93584 151.17824 30 ft 11 kts 190°
2026-05-06 12:26 -33.93670 151.17805 30 ft 14 kts 193°
2026-05-06 12:26 -33.93772 151.17774 30 ft 18 kts 194°
2026-05-06 12:26 -33.93859 151.17697 29 ft 15 kts 256°
2026-05-06 12:27 -33.93893 151.17552 28 ft 21 kts 254°
2026-05-06 12:27 -33.93902 151.17511 28 ft 0 kts 254°
2026-05-06 12:28 -33.93903 151.17510 28 ft 1 kts 254°
2026-05-06 12:28 -33.93922 151.17427 27 ft 20 kts 254°
2026-05-06 12:28 -33.93970 151.17248 29 ft 21 kts 231°
2026-05-06 12:29 -33.94056 151.17250 29 ft 14 kts 171°
2026-05-06 12:29 -33.94190 151.17282 28 ft 22 kts 169°
2026-05-06 12:29 -33.94342 151.17320 30 ft 23 kts 168°
2026-05-06 12:29 -33.94506 151.17364 30 ft 25 kts 168°
2026-05-06 12:30 -33.94660 151.17403 31 ft 13 kts 204°
2026-05-06 12:30 -33.94747 151.17426 30 ft 14 kts 165°
2026-05-06 12:30 -33.94853 151.17454 30 ft 17 kts 168°
2026-05-06 12:30 -33.94977 151.17486 30 ft 19 kts 168°
2026-05-06 12:31 -33.95117 151.17521 29 ft 22 kts 168°
2026-05-06 12:31 -33.95273 151.17560 29 ft 24 kts 168°
2026-05-06 12:31 -33.95448 151.17607 30 ft 27 kts 165°
2026-05-06 12:31 -33.95636 151.17655 30 ft 29 kts 169°
2026-05-06 12:32 -33.95835 151.17708 30 ft 31 kts 168°
2026-05-06 12:32 -33.96053 151.17764 30 ft 33 kts 168°
2026-05-06 12:32 -33.96286 151.17822 30 ft 35 kts 167°
2026-05-06 12:32 -33.96427 151.17890 30 ft 11 kts 120°
2026-05-06 12:33 -33.96423 151.18004 30 ft 17 kts 76°
2026-05-06 12:33 -33.96326 151.18039 29 ft 17 kts 347°
2026-05-06 12:33 -33.96183 151.18001 28 ft 30 kts 347°
2026-05-06 12:33 -33.95763 151.17890 28 ft 95 kts 348°
2026-05-06 12:34 -33.94935 151.17672 29 ft 147 kts 348°
2026-05-06 12:34 -33.93851 151.17413 409 ft 158 kts 359°
2026-05-06 12:34 -33.92857 151.17932 949 ft 165 kts 42°
2026-05-06 12:34 -33.91894 151.18625 1389 ft 165 kts 356°
2026-05-06 12:35 -33.90774 151.18462 2047 ft 160 kts 346°
2026-05-06 12:35 -33.89637 151.18207 2496 ft 173 kts 350°
2026-05-06 12:35 -33.88377 151.17995 2843 ft 195 kts 349°
2026-05-06 12:35 -33.86940 151.17768 3166 ft 222 kts 353°
2026-05-06 12:36 -33.85340 151.18033 3661 ft 247 kts 17°
2026-05-06 12:36 -33.83871 151.19255 4320 ft 268 kts 46°
2026-05-06 12:36 -33.82719 151.21075 4853 ft 277 kts 52°
2026-05-06 12:36 -33.81631 151.22988 5164 ft 278 kts 56°
2026-05-06 12:37 -33.80676 151.24969 5643 ft 280 kts 58°
2026-05-06 12:37 -33.79724 151.27071 6216 ft 283 kts 59°
2026-05-06 12:37 -33.78797 151.29167 6762 ft 286 kts 59°
2026-05-06 12:37 -33.77858 151.31295 7299 ft 288 kts 59°
2026-05-06 12:38 -33.76925 151.33405 7833 ft 290 kts 59°
2026-05-06 12:38 -33.75970 151.35557 8382 ft 293 kts 59°
2026-05-06 12:38 -33.74991 151.37754 8955 ft 296 kts 59°
2026-05-06 12:38 -33.74028 151.39908 9516 ft 298 kts 58°
2026-05-06 12:39 -33.73040 151.42118 10083 ft 301 kts 58°
2026-05-06 12:39 -33.72025 151.44377 10604 ft 313 kts 58°
2026-05-06 12:39 -33.70974 151.46720 11140 ft 325 kts 58°
2026-05-06 12:39 -33.69885 151.49147 11687 ft 335 kts 58°
2026-05-06 12:40 -33.68759 151.51648 12241 ft 345 kts 58°
2026-05-06 12:40 -33.67601 151.54215 12807 ft 354 kts 58°
2026-05-06 12:40 -33.66415 151.56843 13381 ft 363 kts 58°
2026-05-06 12:40 -33.65013 151.59386 13951 ft 367 kts 47°
2026-05-06 12:41 -33.63227 151.61584 14469 ft 368 kts 36°
2026-05-06 12:41 -33.61146 151.63358 15007 ft 369 kts 29°
2026-05-06 12:41 -33.58984 151.65040 15543 ft 371 kts 29°
2026-05-06 12:41 -33.56813 151.66742 16090 ft 374 kts 30°
2026-05-06 12:42 -33.54633 151.68460 16633 ft 377 kts 30°
2026-05-06 12:42 -33.52435 151.70197 17197 ft 379 kts 30°
2026-05-06 12:42 -33.50192 151.71872 17779 ft 380 kts 24°
2026-05-06 12:42 -33.47762 151.73105 18292 ft 379 kts 14°
2026-05-06 12:43 -33.45223 151.73940 18739 ft 380 kts 11°
2026-05-06 12:43 -33.42663 151.74759 19187 ft 382 kts 11°
2026-05-06 12:43 -33.40082 151.75590 19632 ft 385 kts 11°
2026-05-06 12:43 -33.37492 151.76427 20102 ft 388 kts 11°
2026-05-06 12:44 -33.34875 151.77274 20568 ft 390 kts 11°
2026-05-06 12:44 -33.32240 151.78127 21033 ft 393 kts 11°
2026-05-06 12:44 -33.29594 151.78981 21522 ft 396 kts 10°
2026-05-06 12:44 -33.26922 151.79841 22018 ft 399 kts 10°
2026-05-06 12:45 -33.24227 151.80706 22513 ft 402 kts 10°
2026-05-06 12:45 -33.21518 151.81577 23018 ft 405 kts
2026-05-06 12:45 -33.16031 151.83338 23987 ft 410 kts
2026-05-06 12:46 -33.13264 151.84232 24428 ft 412 kts
2026-05-06 12:46 -33.10530 151.85120 24848 ft 414 kts
2026-05-06 12:46 -33.07749 151.86017 25301 ft 415 kts
2026-05-06 12:46 -33.04963 151.86914 25757 ft 416 kts
2026-05-06 12:47 -33.02165 151.87811 26213 ft 416 kts
2026-05-06 12:47 -32.99370 151.88706 26694 ft 416 kts
2026-05-06 12:47 -32.96571 151.89601 27170 ft 416 kts
2026-05-06 12:47 -32.93765 151.90499 27665 ft 416 kts
2026-05-06 12:48 -32.90977 151.91391 28158 ft 416 kts
2026-05-06 12:48 -32.88184 151.92283 28627 ft 415 kts
2026-05-06 12:48 -32.85393 151.93178 29149 ft 415 kts
2026-05-06 12:48 -32.82606 151.94073 29662 ft 414 kts
2026-05-06 12:49 -32.79820 151.94963 30185 ft 413 kts
2026-05-06 12:49 -32.77050 151.95845 30637 ft 413 kts
2026-05-06 12:49 -32.74275 151.96728 31099 ft 411 kts
2026-05-06 12:49 -32.71515 151.97606 31566 ft 410 kts
2026-05-06 12:50 -32.68760 151.98481 32049 ft 409 kts
2026-05-06 12:50 -32.66012 151.99355 32533 ft 408 kts
2026-05-06 12:50 -32.63272 152.00228 32949 ft 409 kts
2026-05-06 12:50 -32.60497 152.01107 33057 ft 417 kts
2026-05-06 12:51 -32.57699 152.01986 33067 ft 427 kts
2026-05-06 12:51 -32.51897 152.03821 33070 ft 434 kts
2026-05-06 12:52 -32.46067 152.05685 33070 ft 434 kts
2026-05-06 12:52 -32.40225 152.07533 33070 ft 434 kts
2026-05-06 12:53 -32.34386 152.09384 33076 ft 435 kts
2026-05-06 12:53 -32.28531 152.11230 33076 ft 435 kts
2026-05-06 12:54 -32.22690 152.13071 33051 ft 435 kts
2026-05-06 12:54 -32.16841 152.14918 33061 ft 435 kts
2026-05-06 12:55 -32.10983 152.16762 33061 ft 436 kts
2026-05-06 12:55 -32.06102 152.18296 33072 ft 436 kts
2026-05-06 12:56 -32.00235 152.20128 33069 ft 436 kts
2026-05-06 12:56 -31.94366 152.21962 33086 ft 437 kts
2026-05-06 12:57 -31.88494 152.23797 33087 ft 436 kts
2026-05-06 12:57 -31.82622 152.25635 33094 ft 437 kts
2026-05-06 12:58 -31.76744 152.27468 33081 ft 436 kts
2026-05-06 12:58 -31.70883 152.29297 33084 ft 436 kts
2026-05-06 12:59 -31.65014 152.31121 33080 ft 436 kts
2026-05-06 12:59 -31.59175 152.32929 33095 ft 436 kts
2026-05-06 13:00 -31.53304 152.34750 33085 ft 436 kts
2026-05-06 13:00 -31.47476 152.36558 33090 ft 436 kts
2026-05-06 13:01 -31.41599 152.38378 33103 ft 436 kts
2026-05-06 13:01 -31.35742 152.40200 33102 ft 436 kts
2026-05-06 13:02 -31.29869 152.42015 33072 ft 436 kts
2026-05-06 13:02 -31.24002 152.43811 33084 ft 436 kts
2026-05-06 13:03 -31.18122 152.45621 33095 ft 436 kts
2026-05-06 13:03 -31.12247 152.47434 33099 ft 437 kts
2026-05-06 13:04 -31.06368 152.49242 33067 ft 437 kts
2026-05-06 13:04 -31.00482 152.51043 33076 ft 438 kts
2026-05-06 13:05 -30.94591 152.52845 33091 ft 438 kts
2026-05-06 13:05 -30.88694 152.54651 33109 ft 438 kts
2026-05-06 13:06 -30.82800 152.56454 33083 ft 438 kts
2026-05-06 13:06 -30.76902 152.58319 33096 ft 441 kts
2026-05-06 13:07 -30.71028 152.60458 33097 ft 443 kts
2026-05-06 13:07 -30.65158 152.62687 33109 ft 444 kts
2026-05-06 13:08 -30.59309 152.64844 33066 ft 443 kts
2026-05-06 13:08 -30.53410 152.66960 33085 ft 445 kts
2026-05-06 13:09 -30.47495 152.69076 33100 ft 446 kts
2026-05-06 13:09 -30.41569 152.71211 33113 ft 446 kts
2026-05-06 13:10 -30.35652 152.73353 33116 ft 445 kts
2026-05-06 13:10 -30.29733 152.75490 33130 ft 446 kts
2026-05-06 13:11 -30.23804 152.77627 33126 ft 445 kts
2026-05-06 13:11 -30.17894 152.79748 33123 ft 445 kts
2026-05-06 13:12 -30.11945 152.81353 33113 ft 435 kts
2026-05-06 13:12 -30.05989 152.82589 33118 ft 434 kts
2026-05-06 13:13 -30.00051 152.83799 33116 ft 434 kts
2026-05-06 13:13 -29.94114 152.85011 33117 ft 434 kts
2026-05-06 13:14 -29.88162 152.86240 33102 ft 434 kts
2026-05-06 13:14 -29.82219 152.87465 33109 ft 433 kts 360°
2026-05-06 13:14 -29.79251 152.88074 32939 ft 431 kts
2026-05-06 13:15 -29.76335 152.88680 32675 ft 421 kts
2026-05-06 13:15 -29.73474 152.89274 32404 ft 416 kts
2026-05-06 13:15 -29.70627 152.89860 32159 ft 415 kts
2026-05-06 13:15 -29.67788 152.90439 31904 ft 415 kts
2026-05-06 13:16 -29.64947 152.91016 31577 ft 415 kts
2026-05-06 13:16 -29.62094 152.91594 31233 ft 416 kts
2026-05-06 13:16 -29.59244 152.92172 30893 ft 417 kts
2026-05-06 13:16 -29.56384 152.92753 30563 ft 418 kts
2026-05-06 13:17 -29.53524 152.93337 30233 ft 418 kts
2026-05-06 13:17 -29.50674 152.93913 29859 ft 419 kts
2026-05-06 13:17 -29.47783 152.94496 29473 ft 420 kts
2026-05-06 13:17 -29.44899 152.95082 29091 ft 421 kts
2026-05-06 13:18 -29.42001 152.95675 28695 ft 423 kts
2026-05-06 13:18 -29.39102 152.96269 28329 ft 424 kts
2026-05-06 13:18 -29.36197 152.96863 28067 ft 424 kts
2026-05-06 13:19 -29.30374 152.98052 27986 ft 428 kts
2026-05-06 13:19 -29.27414 152.98654 27673 ft 430 kts
2026-05-06 13:19 -29.24543 152.99247 27372 ft 420 kts
2026-05-06 13:19 -29.21687 152.99835 27115 ft 416 kts
2026-05-06 13:20 -29.18846 153.00413 26868 ft 414 kts
2026-05-06 13:20 -29.16015 153.00983 26598 ft 412 kts
2026-05-06 13:20 -29.13198 153.01547 26355 ft 411 kts
2026-05-06 13:20 -29.10384 153.02110 26112 ft 409 kts
2026-05-06 13:21 -29.07583 153.02674 25876 ft 408 kts
2026-05-06 13:21 -29.04795 153.03237 25639 ft 407 kts
2026-05-06 13:21 -29.02011 153.03800 25404 ft 406 kts
2026-05-06 13:21 -28.99233 153.04365 25168 ft 404 kts
2026-05-06 13:22 -28.96465 153.04927 24935 ft 403 kts
2026-05-06 13:22 -28.93706 153.05484 24704 ft 402 kts
2026-05-06 13:22 -28.90958 153.06037 24460 ft 401 kts
2026-05-06 13:22 -28.88214 153.06589 24224 ft 400 kts
2026-05-06 13:23 -28.85481 153.07137 23999 ft 399 kts
2026-05-06 13:23 -28.82752 153.07682 23775 ft 398 kts
2026-05-06 13:23 -28.80032 153.08230 23522 ft 396 kts
2026-05-06 13:23 -28.77317 153.08778 23259 ft 395 kts
2026-05-06 13:24 -28.74616 153.09322 23000 ft 394 kts
2026-05-06 13:24 -28.71920 153.09865 22737 ft 393 kts
2026-05-06 13:24 -28.69228 153.10407 22474 ft 391 kts
2026-05-06 13:24 -28.66556 153.10945 22195 ft 390 kts
2026-05-06 13:25 -28.63922 153.11473 21949 ft 388 kts
2026-05-06 13:25 -28.61230 153.12012 21693 ft 387 kts
2026-05-06 13:25 -28.58586 153.12541 21443 ft 385 kts
2026-05-06 13:25 -28.55949 153.13067 21118 ft 384 kts
2026-05-06 13:26 -28.53315 153.13594 20673 ft 382 kts
2026-05-06 13:26 -28.50708 153.14114 20245 ft 379 kts
2026-05-06 13:26 -28.48147 153.14627 19810 ft 378 kts
2026-05-06 13:26 -28.45538 153.15153 19389 ft 375 kts
2026-05-06 13:27 -28.43013 153.15664 18977 ft 372 kts
2026-05-06 13:27 -28.40474 153.16174 18562 ft 370 kts
2026-05-06 13:27 -28.37943 153.16678 18110 ft 368 kts
2026-05-06 13:27 -28.35432 153.17175 17641 ft 365 kts
2026-05-06 13:28 -28.32934 153.17672 17187 ft 363 kts
2026-05-06 13:28 -28.30473 153.18160 16722 ft 360 kts
2026-05-06 13:28 -28.28016 153.18647 16272 ft 357 kts
2026-05-06 13:28 -28.25577 153.19134 15832 ft 355 kts
2026-05-06 13:29 -28.23168 153.19618 15434 ft 352 kts
2026-05-06 13:29 -28.20768 153.20098 15049 ft 350 kts
2026-05-06 13:29 -28.18369 153.20576 14671 ft 348 kts
2026-05-06 13:29 -28.15986 153.21050 14286 ft 346 kts
2026-05-06 13:30 -28.13612 153.21519 13913 ft 346 kts
2026-05-06 13:30 -28.11249 153.21986 13498 ft 344 kts
2026-05-06 13:30 -28.08894 153.22453 13153 ft 343 kts
2026-05-06 13:30 -28.06546 153.22919 13109 ft 342 kts
2026-05-06 13:31 -28.04199 153.23383 13117 ft 342 kts
2026-05-06 13:31 -28.01850 153.23847 12920 ft 342 kts
2026-05-06 13:31 -27.99501 153.24310 12633 ft 343 kts
2026-05-06 13:31 -27.97146 153.24774 12355 ft 343 kts
2026-05-06 13:32 -27.94793 153.25241 12067 ft 343 kts
2026-05-06 13:32 -27.92452 153.25707 11793 ft 342 kts
2026-05-06 13:32 -27.90116 153.26174 11677 ft 341 kts
2026-05-06 13:32 -27.87809 153.26633 11677 ft 341 kts
2026-05-06 13:33 -27.85469 153.27094 11673 ft 341 kts
2026-05-06 13:33 -27.83132 153.27552 11676 ft 341 kts
2026-05-06 13:33 -27.80792 153.28013 11674 ft 341 kts
2026-05-06 13:33 -27.78451 153.28476 11671 ft 341 kts
2026-05-06 13:34 -27.76112 153.28936 11670 ft 341 kts
2026-05-06 13:34 -27.73768 153.29398 11671 ft 341 kts
2026-05-06 13:34 -27.71432 153.29859 11669 ft 341 kts
2026-05-06 13:34 -27.69092 153.30321 11629 ft 342 kts
2026-05-06 13:35 -27.66760 153.30782 11487 ft 341 kts
2026-05-06 13:35 -27.64429 153.31242 11331 ft 340 kts
2026-05-06 13:35 -27.62101 153.31701 11186 ft 339 kts
2026-05-06 13:35 -27.59780 153.32159 11037 ft 338 kts
2026-05-06 13:36 -27.57461 153.32614 10905 ft 338 kts
2026-05-06 13:36 -27.55146 153.33068 10755 ft 337 kts
2026-05-06 13:36 -27.52836 153.33521 10612 ft 337 kts
2026-05-06 13:36 -27.50529 153.33973 10470 ft 336 kts
2026-05-06 13:37 -27.48230 153.34424 10329 ft 336 kts
2026-05-06 13:37 -27.45927 153.34875 10188 ft 335 kts
2026-05-06 13:37 -27.43691 153.35315 10042 ft 321 kts
2026-05-06 13:37 -27.41553 153.35740 9896 ft 297 kts
2026-05-06 13:38 -27.39573 153.36129 9736 ft 291 kts
2026-05-06 13:38 -27.37581 153.36516 9580 ft 289 kts
2026-05-06 13:38 -27.35599 153.36901 9428 ft 289 kts
2026-05-06 13:38 -27.33623 153.37286 9275 ft 288 kts
2026-05-06 13:39 -27.31646 153.37673 9112 ft 288 kts
2026-05-06 13:39 -27.29676 153.38059 8957 ft 287 kts
2026-05-06 13:39 -27.27708 153.38445 8811 ft 287 kts
2026-05-06 13:39 -27.25740 153.38832 8660 ft 287 kts
2026-05-06 13:40 -27.23780 153.39214 8509 ft 286 kts
2026-05-06 13:40 -27.22482 153.39466 8409 ft 286 kts
2026-05-06 13:40 -27.20517 153.39849 8260 ft 286 kts
2026-05-06 13:40 -27.17889 153.40363 8057 ft 286 kts
2026-05-06 13:41 -27.16594 153.40617 7959 ft 285 kts
2026-05-06 13:41 -27.14642 153.40999 7812 ft 285 kts
2026-05-06 13:41 -27.12033 153.41507 7612 ft 284 kts
2026-05-06 13:41 -27.10738 153.41759 7517 ft 284 kts
2026-05-06 13:42 -27.08789 153.42137 7372 ft 284 kts
2026-05-06 13:42 -27.06213 153.42639 7181 ft 284 kts
2026-05-06 13:42 -27.04897 153.42894 7100 ft 284 kts
2026-05-06 13:42 -27.02954 153.43270 7017 ft 283 kts
2026-05-06 13:43 -27.01011 153.43646 7024 ft 284 kts
2026-05-06 13:43 -26.99089 153.44019 7023 ft 284 kts
2026-05-06 13:43 -26.97145 153.44399 7023 ft 284 kts
2026-05-06 13:43 -26.95202 153.44777 7022 ft 284 kts
2026-05-06 13:44 -26.93252 153.45156 7024 ft 284 kts
2026-05-06 13:44 -26.91307 153.45531 7023 ft 284 kts
2026-05-06 13:44 -26.89357 153.45905 7022 ft 284 kts
2026-05-06 13:44 -26.87413 153.46280 7022 ft 283 kts
2026-05-06 13:45 -26.85475 153.46656 7024 ft 282 kts
2026-05-06 13:45 -26.81603 153.47413 7024 ft 282 kts
2026-05-06 13:45 -26.79666 153.47790 7024 ft 282 kts
2026-05-06 13:46 -26.77731 153.48144 7024 ft 282 kts
2026-05-06 13:46 -26.75770 153.48236 7022 ft 282 kts 357°
2026-05-06 13:46 -26.73853 153.47999 7022 ft 281 kts 348°
2026-05-06 13:46 -26.71945 153.47434 7022 ft 281 kts 340°
2026-05-06 13:47 -26.70172 153.46577 6960 ft 281 kts 332°
2026-05-06 13:47 -26.68501 153.45451 6825 ft 280 kts 327°
2026-05-06 13:47 -26.66856 153.44286 6674 ft 280 kts 327°
2026-05-06 13:47 -26.65211 153.43121 6529 ft 280 kts 326°
2026-05-06 13:48 -26.63568 153.41961 6375 ft 279 kts 327°
2026-05-06 13:48 -26.61926 153.40804 6258 ft 278 kts 327°
2026-05-06 13:48 -26.60340 153.39691 6153 ft 261 kts 326°
2026-05-06 13:48 -26.58814 153.38620 6044 ft 257 kts 327°
2026-05-06 13:49 -26.57308 153.37562 5943 ft 255 kts 326°
2026-05-06 13:49 -26.55807 153.36505 5845 ft 255 kts 327°
2026-05-06 13:49 -26.54306 153.35448 5744 ft 253 kts 327°
2026-05-06 13:49 -26.52868 153.34437 5638 ft 237 kts 327°
2026-05-06 13:50 -26.51481 153.33465 5543 ft 234 kts 327°
2026-05-06 13:50 -26.50103 153.32496 5444 ft 234 kts 327°
2026-05-06 13:50 -26.48723 153.31527 5350 ft 235 kts 327°
2026-05-06 13:50 -26.47346 153.30559 5244 ft 233 kts 327°
2026-05-06 13:51 -26.46001 153.29552 5153 ft 233 kts 320°
2026-05-06 13:51 -26.44845 153.28316 5058 ft 233 kts 313°
2026-05-06 13:51 -26.43726 153.27011 4967 ft 233 kts 313°
2026-05-06 13:51 -26.42605 153.25707 4870 ft 232 kts 313°
2026-05-06 13:52 -26.41482 153.24404 4768 ft 233 kts 313°
2026-05-06 13:52 -26.40356 153.23101 4665 ft 234 kts 313°
2026-05-06 13:52 -26.39225 153.21789 4558 ft 234 kts 313°
2026-05-06 13:52 -26.38097 153.20482 4466 ft 233 kts 313°
2026-05-06 13:53 -26.36974 153.19181 4369 ft 233 kts 311°
2026-05-06 13:53 -26.36004 153.17737 4267 ft 231 kts 298°
2026-05-06 13:53 -26.35361 153.16096 4171 ft 232 kts 285°
2026-05-06 13:53 -26.35052 153.14344 4076 ft 231 kts 275°
2026-05-06 13:54 -26.34839 153.12566 3975 ft 232 kts 276°
2026-05-06 13:54 -26.34623 153.10794 3874 ft 229 kts 276°
2026-05-06 13:54 -26.34405 153.09036 3777 ft 229 kts 277°
2026-05-06 13:54 -26.34221 153.07277 3678 ft 228 kts 270°
2026-05-06 13:55 -26.34387 153.05523 3576 ft 227 kts 254°
2026-05-06 13:55 -26.34945 153.03888 3483 ft 226 kts 239°
2026-05-06 13:55 -26.35816 153.02447 3388 ft 224 kts 232°
2026-05-06 13:55 -26.36741 153.01042 3290 ft 224 kts 231°
2026-05-06 13:56 -26.37842 152.99835 3140 ft 220 kts 212°
2026-05-06 13:56 -26.39169 152.99068 2964 ft 211 kts 201°
2026-05-06 13:56 -26.40499 152.98408 2790 ft 206 kts 201°
2026-05-06 13:56 -26.41788 152.97762 2616 ft 201 kts 201°
2026-05-06 13:57 -26.43041 152.97134 2442 ft 198 kts 201°
2026-05-06 13:57 -26.44326 152.96635 2267 ft 194 kts 184°
2026-05-06 13:57 -26.45642 152.96776 2097 ft 189 kts 158°
2026-05-06 13:57 -26.46755 152.97523 1925 ft 187 kts 142°
2026-05-06 13:58 -26.47782 152.98411 1834 ft 186 kts 142°
2026-05-06 13:58 -26.48792 152.99281 1762 ft 180 kts 142°
2026-05-06 13:58 -26.49778 153.00129 1677 ft 178 kts 142°
2026-05-06 13:58 -26.50756 153.00967 1594 ft 176 kts 143°
2026-05-06 13:59 -26.51735 153.01805 1608 ft 177 kts 142°
2026-05-06 13:59 -26.52664 153.02600 1600 ft 163 kts 143°
2026-05-06 13:59 -26.53548 153.03356 1443 ft 158 kts 143°
2026-05-06 13:59 -26.54413 153.04111 1250 ft 161 kts 142°
2026-05-06 14:00 -26.55291 153.04907 1023 ft 161 kts 142°
2026-05-06 14:00 -26.56178 153.05693 702 ft 164 kts 144°
2026-05-06 14:00 -26.57090 153.06429 447 ft 158 kts 146°
2026-05-06 14:00 -26.57953 153.07143 172 ft 150 kts 143°
2026-05-06 14:01 -26.58738 153.07805 21 ft 129 kts 144°
2026-05-06 14:01 -26.59212 153.08211 16 ft 43 kts 142°
2026-05-06 14:01 -26.59342 153.08332 18 ft 27 kts 135°
2026-05-06 14:01 -26.59525 153.08478 21 ft 34 kts 143°
2026-05-06 14:02 -26.59719 153.08648 24 ft 39 kts 142°
2026-05-06 14:02 -26.59943 153.08837 23 ft 35 kts 142°
2026-05-06 14:02 -26.60064 153.08926 23 ft 9 kts 185°
2026-05-06 14:02 -26.60108 153.08885 23 ft 0 kts 232°
2026-05-06 14:05 -26.60133 153.08850 23 ft 11 kts 232°
2026-05-06 14:05 -26.60148 153.08803 23 ft 1 kts 261°
2026-05-06 14:05 -26.60151 153.08800 23 ft 1 kts 227°
2026-05-06 14:06 -26.60198 153.08830 23 ft 16 kts 141°
2026-05-06 14:06 -26.60302 153.08919 21 ft 19 kts 142°
2026-05-06 14:06 -26.60368 153.08911 23 ft 9 kts 179°
2026-05-06 14:06 -26.60440 153.08958 26 ft 15 kts 142°
2026-05-06 14:07 -26.60532 153.09038 29 ft 19 kts 142°
2026-05-06 14:07 -26.60624 153.09041 28 ft 13 kts 193°
2026-05-06 14:07 -26.60653 153.09033 27 ft 0 kts 193°
2026-05-06 14:08 -26.60658 153.09032 27 ft 2 kts 193°
2026-05-06 14:08 -26.60669 153.09029 27 ft 2 kts 193°
2026-05-06 14:08 -26.60675 153.09028 27 ft 1 kts 193°
2026-05-06 14:08 -26.60676 153.09027 25 ft 0 kts 193°